Location: Newark
(43.4306°N, 0.3089°E)
Time: 14:13:10
(UTC+00:00)

S-56A Canister/Altair - Pass Details

Date: 20 August 2019
Orbit: 633 x 2499 km, 38.9° (Epoch: 21 September)

Event Time Altitude Azimuth Distance (km) Brightness Sun altitude
Rises 01:47:48 0° 271° (W) 3,035 - -29.0°
Reaches altitude 10° 01:50:01 10° 263° (W) 2,222 - -28.8°
Maximum altitude 01:54:45 40° 195° (SSW) 1,272 - -28.4°
Exits shadow 01:58:58 19° 136° (SE) 2,266 9.8 -28.0°
Drops below altitude 10° 02:01:12 10° 128° (SE) 3,041 10.5 -27.8°
Sets 02:04:44 0° 122° (ESE) 4,316 11.4 -27.4°
